Flag for Austria Weather past 2 weeks in Waidhofen an der Thaya, Lower Austria, Austria

Now
65 °F

Mild.


Feels Like: 65 °F
Forecast: 50 / 80 °F
Wind: 5 mph from Northeast

Location: Retz

Current Time: Aug 2, 2015 at 4:46:23 AM

Latest Report: Aug 2, 2015 at 4:00 AM


Visibility: N/A

Pressure: 29.98 "Hg (28.25 "Hg at 506m altitude)

Humidity: 63%

Dew point: 53 °F

Location of Waidhofen an der ThayaLocation

Historic Weather in Waidhofen an der Thaya — Graph

°F

Waidhofen an der Thaya temperature yesterday

Maximum temperature yesterday: 79 °F (at 3:00 PM)
Minimum temperature yesterday: 57 °F (at 4:00 AM)
Average temperature yesterday: 70 °F

Past Weeks' High & Low Weather Summary

 TemperatureHumidityPressure
High96 °F (Jul 22, 4:00 PM)92% (Jul 29, 7:00 AM)30.04 "Hg (Jul 29, 7:00 AM)
Low55 °F (Jul 30, 6:00 AM)22% (Jul 31, 5:00 PM)29.64 "Hg (Jul 27, 4:00 PM)
Average73 °F54%29.86 "Hg
* Reported Jul 18 2:00 AM — Aug 2 2:00 AM, Waidhofen an der Thaya, Weather by CustomWeather, © 2015

Note: Actual official high and low records may vary slightly from our data, if they occured in-between our weather recording intervals... More about our weather records

Advertising

Waidhofen an der Thaya weather history for previous 24 hours

 ConditionsComfort  
Time TempWeatherWind HumidityBarometerVisibility
2:00 AM
Sun, Aug 2
65 °FMild.5 mph59%29.99 "HgN/A
1:00 AM67 °FMild.3 mph56%29.99 "HgN/A
12:00 AM67 °FMild.3 mph55%29.99 "HgN/A
10:00 PM
Sat, Aug 1
71 °FMild.3 mph47%29.96 "HgN/A
9:00 PM72 °FMild.3 mph44%29.94 "HgN/A
8:00 PM75 °FScattered clouds.3 mph40%29.92 "Hg22 mi
6:00 PM78 °FPleasantly warm.5 mph35%29.92 "HgN/A
5:00 PM79 °FPleasantly warm.6 mph34%29.91 "HgN/A
4:00 PM79 °FPleasantly warm.6 mph31%29.93 "HgN/A
3:00 PM79 °FPleasantly warm.5 mph32%29.94 "HgN/A
2:00 PM77 °FScattered clouds.6 mph36%29.95 "Hg25 mi
1:00 PM76 °FMild.6 mph35%29.97 "HgN/A
12:00 PM75 °FMild.7 mph35%29.97 "HgN/A
11:00 AM74 °FMild.7 mph36%29.98 "HgN/A
10:00 AM70 °FMild.6 mph41%29.98 "HgN/A
9:00 AM66 °FMild.6 mph49%30.00 "HgN/A
8:00 AM61 °FPassing clouds.6 mph57%30.01 "Hg16 mi
7:00 AM58 °FPassing clouds.6 mph62%30.01 "Hg16 mi
4:00 AM57 °FCool.5 mph61%30.02 "HgN/A
Weather by CustomWeather, © 2015

See weather overviewHow to use our weather pages